Find Starlink 5806

NORAD ID: 56007 Int'l Des: 2023-042 Owner: SPXS Country: US Constellation: starlink operational
LEOCIRCULAR

リアルタイム位置

3D地球を読み込み中...

Starlink 5806について

説明を読み込み中...

次回通過

Passes for default location (London). Set your location on the main map for personalized predictions.

高度履歴

Loading altitude history...

軌道要素

1 56007U 23042X 26124.94854455 .00000628 00000-0 32364-4 0 9996
2 56007 43.0029 101.8670 0001374 267.7995 92.2700 15.27575836171470
Epoch: May 4, 2026 • Age: 16 hours

現在のステータス

高度 483.3 km
速度 7.63 km/s
衛星直下点 -3.41°S, 170.83°W
打ち上げ日 Mar 24, 2023
運用期間 3.1 years
タイプ internet

技術仕様

分類 Payload
質量 305.00 kg
乾燥質量 290.00 kg
総質量 305.00 kg
長さ 0.20 m
直径 2.80 m
スパン 9.00 m
形状 Box + pan
製造者 SPXS
バスタイプ Starlink
フェーズステータス In Orbit
所有者/国 SPXS/US

Most Searched